User: anonymous
Location: NJAA Observatory
(40.6819°N, 74.8979°W)
Time: 05:33:27
(UTC-04:00)
Language:

Cosmos 2237 Rocket - Orbit

View from above orbital plane
View from above orbital plane
View from above satellite
View from above satellite

Ground track
Ground track

The orbit data is extracted from the following two-line orbital elements,

1 22566U 93016B   14258.75803725 -.00000214  00000-0 -85986-4 0  1460
2 22566 071.0105 017.2385 0011867 232.1323 127.8727 14.14852617109050
Epoch (UTC): 15 September 2014 18:11:34
Eccentricity: 0.0011867
inclination: 71.0105°
perigee height: 834 km
apogee height: 851 km
right ascension of ascending node: 17.2385°
argument of perigee: 232.1323°
revolutions per day: 14.14852617
mean anomaly at epoch: 127.8727°
orbit number at epoch: 10905

The dashed part of the orbit path shows where the satellite is in the earth's shadow,  

DLR